COSMOS 970 DEB, 65003

Orbit data source: Space-Track

COSMOS 970 DEB, 65003 is space debris in LEO originally from a launch on Wed, 21 Dec 1977 UTC launched from the Tyuratam Missile And Space Complex (TTMTR). Debris objects in space refer to the collection of defunct objects orbiting the Earth. Examples of debris include non-operational satellites, rocket bodies, and fragments generated from explosions, collisions, or faulty payload assembly.

Loading next visibility...
Identifier
65003, 1977-121DQ
Orbit
LEO
Country
Flag of CISCIS
Related business
Manufacturer
Unknown
Mission
Spacecraft
Bus & Motor
Unknown
Mass
Unknown
Launch date (UTC)
1977-12-21 (48 years ago)
Launch vehicle
Unknown
Launch site
Tyuratam Missile And Space Complex (TTMTR)
Object type
Payload
Rocket body
Debris
Shape & HBR
Unknown shape, 1.1 m
Radar Cross Section
Small (<0.1 m²)

Expand to show TLE details & history
Last TLE update: 6 months ago

TLE from 6 months ago
0 COSMOS 970 DEB
1 65003U 77121DQ  25358.03419073  .00000545  00000-0  59572-3 0  9997
2 65003  65.8401 225.4212 0115204 173.4406 259.7455 13.77750614155678
Epoch: 2025-12-24T00:49Z
TLE epoch observation values (Epoch: 2025-12-24T00:49:14.079Z)
Latitude
60.25205°
Longitude
171.64105°
Altitude
997.239 km
Speed
7.351 km/s
True Right ascension
18h 27m 02s
True Declination
60° 06' 31"
Sunlit
Object was in daylight at epoch
Visualization orbit readout
Latitude
Unknown
Longitude
Unknown
Altitude
Unknown
Speed
Unknown
Apparent Right ascension
Unknown
Apparent Declination
Unknown
Sunlit
N/A
Visualization observer readout
Local Sidereal Time
08:32:48
Azimuth
Unknown
Elevation
Unknown
Doppler factor
Unknown
Orbital elements
Apogee altitude
1,055.048 km
Perigee altitude
885.732 km
Semi-major axis
7,348.527 km
Eccentricity
0.01152
Inclination
65.8401°
RAAN
225.4212°
Arg. of periapsis
173.4406°
True anomaly
258.44988°
Mean anomaly
259.7455°
Eccentric anomaly
259.09734°
Mean motion
3.44542 °/min
Orbital period
104.49 mins
BSTAR
0.00059572
Loading maneuver chart data...
Computing Atmospheric mass density...
Loading historical data...
Loading historical data...
Loading historical data...
Loading historical data...
Loading historical data...
Loading historical data...
Loading historical data...

Documentation

Showing up to 5 results
|